| time (UTC) | temp F | wind direction | speed MPH | gust MPH | rain 1hr in | rain 24hr in | rain mn in | humidity % | barometer mb |
| 20260901170047 | 61 | 180 | 1.0 | 9.0 | 0.00 | 0.30 | 0.30 | 98 | 1017.2 |
| 20260901164557 | 60 | 201 | 1.0 | 6.0 | 0.00 | 0.30 | 0.30 | 98 | 1017.4 |
| 20260901163050 | 60 | 169 | 1.0 | 6.0 | 0.00 | 0.30 | 0.30 | 97 | 1017.7 |
| 20260901161550 | 60 | 169 | 2.0 | 9.0 | 0.01 | 0.30 | 0.30 | 97 | 1018.0 |
| 20260901160058 | 61 | 175 | 3.0 | 9.0 | 0.01 | 0.30 | 0.30 | 98 | 1018.3 |
| 20260901154547 | 62 | 151 | 1.0 | 6.0 | 0.02 | 0.30 | 0.30 | 98 | 1018.4 |
| 20260901153049 | 63 | 150 | 2.0 | 9.0 | 0.02 | 0.29 | 0.29 | 97 | 1018.1 |
| 20260901151554 | 63 | 0 | 0.0 | 4.0 | 0.09 | 0.29 | 0.29 | 97 | 1018.1 |
| 20260901150049 | 65 | 221 | 1.0 | 5.0 | 0.11 | 0.29 | 0.29 | 98 | 1017.9 |
| 20260901144546 | 66 | 163 | 1.0 | 6.0 | 0.14 | 0.28 | 0.28 | 97 | 1018.1 |
| 20260901143046 | 67 | 0 | 0.0 | 3.0 | 0.15 | 0.27 | 0.27 | 98 | 1018.2 |
| 20260901141551 | 67 | 83 | 1.0 | 3.0 | 0.10 | 0.19 | 0.19 | 98 | 1018.4 |
| 20260901140048 | 67 | 0 | 0.0 | 3.0 | 0.15 | 0.18 | 0.18 | 97 | 1017.6 |
| 20260901134545 | 67 | 0 | 0.0 | 3.0 | 0.13 | 0.13 | 0.13 | 97 | 1018.0 |
| 20260901133043 | 68 | 0 | 0.0 | 3.0 | 0.12 | 0.12 | 0.12 | 96 | 1017.7 |
| 20260901131547 | 68 | 0 | 0.0 | 3.0 | 0.09 | 0.09 | 0.09 | 94 | 1017.6 |
| 20260901130047 | 68 | 157 | 0.0 | 4.0 | 0.03 | 0.03 | 0.03 | 93 | 1017.6 |
| 20260901124545 | 68 | 0 | 0.0 | 4.0 | 0.00 | 0.00 | 0.00 | 92 | 1017.8 |
| 20260901123052 | 69 | 171 | 0.0 | 3.0 | 0.00 | 0.00 | 0.00 | 92 | 1017.7 |
| 20260901121547 | 69 | 148 | 1.0 | 6.0 | 0.00 | 0.00 | 0.00 | 92 | 1017.7 |
| 20260901120050 | 68 | 0 | 0.0 | 4.0 | 0.00 | 0.00 | 0.00 | 93 | 1017.8 |
| 20260901114543 | 68 | 0 | 2.0 | 4.0 | 0.00 | 0.00 | 0.00 | 93 | 1017.8 |
| 20260901113050 | 68 | 146 | 0.0 | 4.0 | 0.00 | 0.00 | 0.00 | 94 | 1017.8 |
| 20260901111546 | 68 | 0 | 0.0 | 4.0 | 0.00 | 0.00 | 0.00 | 94 | 1017.7 |
| 20260901110046 | 68 | 0 | 0.0 | 2.0 | 0.00 | 0.00 | 0.00 | 94 | 1017.7 |
| 20260901104551 | 67 | 0 | 0.0 | 3.0 | 0.00 | 0.00 | 0.00 | 94 | 1017.4 |
| 20260901103049 | 67 | 0 | 0.0 | 2.0 | 0.00 | 0.00 | 0.00 | 95 | 1017.4 |
| 20260901101606 | 68 | 0 | 0.0 | 1.0 | 0.00 | 0.00 | 0.00 | 95 | 1017.4 |
| 20260901100053 | 68 | 0 | 0.0 | 1.0 | 0.00 | 0.00 | 0.00 | 94 | 1017.3 |
| 20260901094549 | 68 | 0 | 0.0 | 1.0 | 0.00 | 0.00 | 0.00 | 95 | 1017.3 |
| 20260901093048 | 68 | 0 | 0.0 | 1.0 | 0.00 | 0.00 | 0.00 | 94 | 1017.2 |
| 20260901091545 | 68 | 0 | 0.0 | 3.0 | 0.00 | 0.00 | 0.00 | 94 | 1017.2 |
| 20260901090055 | 68 | 0 | 0.0 | 4.0 | 0.00 | 0.00 | 0.00 | 94 | 1017.3 |
| 20260901084548 | 68 | 0 | 0.0 | 1.0 | 0.00 | 0.00 | 0.00 | 94 | 1017.7 |
| 20260901083057 | 68 | 0 | 0.0 | 1.0 | 0.00 | 0.00 | 0.00 | 93 | 1018.0 |
| 20260901081549 | 68 | 0 | 0.0 | 1.0 | 0.00 | 0.00 | 0.00 | 93 | 1017.9 |
| 20260901080100 | 68 | 0 | 0.0 | 0.0 | 0.00 | 0.00 | 0.00 | 92 | 1018.0 |
| 20260901074551 | 68 | 0 | 0.0 | 0.0 | 0.00 | 0.00 | 0.00 | 92 | 1018.0 |
| 20260901073047 | 68 | 0 | 0.0 | 2.0 | 0.00 | 0.00 | 0.00 | 92 | 1017.9 |
| 20260901071544 | 68 | 0 | 0.0 | 1.0 | 0.00 | 0.00 | 0.00 | 91 | 1018.0 |
| 20260901070056 | 67 | 0 | 0.0 | 1.0 | 0.00 | 0.00 | 0.00 | 91 | 1018.0 |
| 20260901064548 | 67 | 0 | 0.0 | 2.0 | 0.00 | 0.00 | 0.00 | 91 | 1018.2 |
| 20260901063048 | 67 | 0 | 0.0 | 0.0 | 0.00 | 0.00 | 0.00 | 91 | 1018.5 |
| 20260901061544 | 67 | 0 | 0.0 | 2.0 | 0.00 | 0.00 | 0.00 | 91 | 1018.4 |
| 20260901060049 | 67 | 0 | 0.0 | 1.0 | 0.00 | 0.00 | 0.00 | 91 | 1018.5 |
| 20260901054544 | 67 | 0 | 0.0 | 1.0 | 0.00 | 0.00 | 0.00 | 90 | 1018.4 |
| 20260901053115 | 67 | 0 | 0.0 | 0.0 | 0.00 | 0.00 | 0.00 | 90 | 1018.4 |
| 20260901051603 | 67 | 0 | 0.0 | 1.0 | 0.00 | 0.00 | 0.00 | 89 | 1018.6 |
| 20260901050045 | 67 | 0 | 0.0 | 1.0 | 0.00 | 0.00 | 0.00 | 89 | 1018.8 |
| 20260901044545 | 67 | 0 | 0.0 | 1.0 | 0.00 | 0.16 | 0.00 | 87 | 1018.9 |
| 20260901043100 | 67 | 0 | 0.0 | 1.0 | 0.00 | 0.16 | 0.00 | 87 | 1019.0 |
| 20260901041555 | 67 | 205 | 0.0 | 1.0 | 0.00 | 0.16 | 0.00 | 86 | 1019.2 |
| 20260901040047 | 67 | 0 | 0.0 | 3.0 | 0.00 | 0.16 | 0.00 | 87 | 1019.2 |
| 20260901034546 | 67 | 0 | 0.0 | 2.0 | 0.00 | 0.42 | 0.16 | 90 | 1019.2 |
| 20260901033046 | 68 | 0 | 0.0 | 2.0 | 0.00 | 0.42 | 0.16 | 89 | 1019.2 |
| 20260901031557 | 68 | 145 | 0.0 | 3.0 | 0.00 | 0.42 | 0.16 | 89 | 1019.0 |
| 20260901030047 | 68 | 0 | 0.0 | 5.0 | 0.00 | 0.42 | 0.16 | 90 | 1018.9 |
| 20260901024544 | 68 | 157 | 1.0 | 3.0 | 0.00 | 0.58 | 0.16 | 90 | 1019.1 |
| 20260901023051 | 68 | 145 | 0.0 | 3.0 | 0.00 | 0.58 | 0.16 | 89 | 1019.2 |
| 20260901021549 | 67 | 165 | 0.0 | 2.0 | 0.00 | 0.58 | 0.16 | 89 | 1019.4 |
| 20260901020047 | 67 | 0 | 0.0 | 1.0 | 0.00 | 0.58 | 0.16 | 89 | 1019.6 |
| 20260901014600 | 68 | 0 | 0.0 | 1.0 | 0.00 | 0.58 | 0.16 | 89 | 1019.5 |
| 20260901013054 | 68 | 133 | 0.0 | 2.0 | 0.00 | 0.58 | 0.16 | 89 | 1019.5 |
| 20260901011545 | 68 | 0 | 1.0 | 3.0 | 0.00 | 0.58 | 0.16 | 89 | 1019.5 |
| 20260901010054 | 68 | 180 | 0.0 | 3.0 | 0.00 | 0.58 | 0.16 | 88 | 1019.4 |
| 20260901004548 | 68 | 0 | 0.0 | 4.0 | 0.00 | 0.58 | 0.16 | 87 | 1019.3 |
| 20260901003100 | 68 | 157 | 0.0 | 3.0 | 0.00 | 0.58 | 0.16 | 86 | 1019.3 |
| 20260901001554 | 68 | 182 | 0.0 | 3.0 | 0.00 | 0.58 | 0.16 | 86 | 1019.4 |
| 20260901000106 | 68 | 140 | 0.0 | 3.0 | 0.00 | 0.58 | 0.16 | 86 | 1019.4 |
| 20260831234612 | 68 | 0 | 0.0 | 2.0 | 0.00 | 0.58 | 0.16 | 86 | 1019.6 |
| 20260831233049 | 68 | 126 | 0.0 | 5.0 | 0.00 | 0.58 | 0.16 | 86 | 1019.5 |
| 20260831231555 | 68 | 166 | 1.0 | 4.0 | 0.00 | 0.58 | 0.16 | 86 | 1019.6 |
| 20260831230051 | 68 | 0 | 0.0 | 4.0 | 0.00 | 0.58 | 0.16 | 86 | 1019.6 |
| 20260831224545 | 68 | 156 | 0.0 | 2.0 | 0.00 | 0.58 | 0.16 | 85 | 1019.7 |
| 20260831223054 | 69 | 0 | 0.0 | 2.0 | 0.00 | 0.58 | 0.16 | 85 | 1019.7 |
| 20260831221551 | 69 | 0 | 1.0 | 5.0 | 0.00 | 0.58 | 0.16 | 85 | 1019.8 |
| 20260831220049 | 69 | 165 | 1.0 | 5.0 | 0.00 | 0.58 | 0.16 | 85 | 1019.7 |
| 20260831214549 | 69 | 158 | 1.0 | 5.0 | 0.00 | 0.58 | 0.16 | 85 | 1019.9 |
| 20260831213053 | 69 | 194 | 1.0 | 5.0 | 0.00 | 0.58 | 0.16 | 84 | 1019.9 |
| 20260831211548 | 70 | 0 | 0.0 | 7.0 | 0.00 | 0.58 | 0.16 | 83 | 1020.0 |
| 20260831210046 | 71 | 157 | 2.0 | 4.0 | 0.00 | 0.58 | 0.16 | 81 | 1019.8 |
| 20260831204605 | 72 | 159 | 1.0 | 8.0 | 0.00 | 0.58 | 0.16 | 80 | 1019.7 |
| 20260831203049 | 72 | 154 | 1.0 | 6.0 | 0.00 | 0.58 | 0.16 | 80 | 1019.5 |
| 20260831201548 | 72 | 181 | 2.0 | 6.0 | 0.00 | 0.58 | 0.16 | 80 | 1019.8 |
| 20260831200056 | 71 | 174 | 2.0 | 5.0 | 0.00 | 0.58 | 0.16 | 80 | 1019.9 |
| 20260831194555 | 71 | 0 | 1.0 | 7.0 | 0.00 | 0.58 | 0.16 | 80 | 1020.0 |
| 20260831193047 | 71 | 182 | 1.0 | 7.0 | 0.00 | 0.58 | 0.16 | 80 | 1020.0 |
| 20260831191544 | 71 | 159 | 0.0 | 4.0 | 0.00 | 0.58 | 0.16 | 79 | 1020.2 |
| 20260831190044 | 72 | 189 | 2.0 | 7.0 | 0.00 | 0.58 | 0.16 | 74 | 1020.3 |
| 20260831184549 | 74 | 152 | 2.0 | 5.0 | 0.00 | 0.58 | 0.16 | 67 | 1020.5 |
| 20260831183045 | 75 | 192 | 2.0 | 6.0 | 0.00 | 0.58 | 0.16 | 68 | 1020.6 |
| 20260831181549 | 75 | 157 | 1.0 | 5.0 | 0.00 | 0.58 | 0.16 | 72 | 1020.5 |
| 20260831180055 | 76 | 153 | 2.0 | 5.0 | 0.00 | 0.58 | 0.16 | 75 | 1020.6 |
| 20260831174548 | 75 | 217 | 0.0 | 6.0 | 0.00 | 0.58 | 0.16 | 76 | 1020.7 |
| 20260831173048 | 74 | 182 | 1.0 | 4.0 | 0.00 | 0.58 | 0.16 | 75 | 1020.6 |
| 20260831171544 | 76 | 344 | 1.0 | 5.0 | 0.00 | 0.58 | 0.16 | 72 | 1020.4 |